Regional Weather Roundup
Issued by NWS

Home | Current Version | Previous Version | Text Only | Print | Product List | Glossary On
Versions: 1 2 3 4 5 6 7 8 9 10 11 12 13 14 15 16 17 18 19 20 21 22 23 24 25 26 27 28
000
ASPQ40 PGUM 200812
RWRPQ
WEATHER ROUNDUP FOR THE MARIANAS AND MICRONESIA
NATIONAL WEATHER SERVICE TIYAN GU
600 PM CHST WED SEP 20 2017

GUZ001>004-200900-
MARIANA ISLANDS-

CITY           SKY/WX    TMP DP  RH WIND       PRES   REMARKS
GUAM AIRPORT   PTCLDY    82  77  83 SE8       29.80R HX  91
ANDERSEN AFB   MOCLDY    82  75  78 S10       29.80R
ROTA AIRPORT   NOT AVBL
TINIAN AP      NOT AVBL
SAIPAN AP      MOCLDY    82  79  89 E6        29.80R HX  93

$$

PMZ161-200900-
REPUBLIC OF PALAU-

CITY           SKY/WX    TMP DP  RH WIND       PRES   REMARKS
KOROR AP       LGT RAIN  79  75  89 W14G23    29.74R
KOROR WSO      NOT AVBL

$$

PMZ171>174-200900-
FEDERATED STATES OF MICRONESIA-

CITY           SKY/WX    TMP DP  RH WIND       PRES   REMARKS
YAP AIRPORT    CLOUDY    84  77  79 S8        29.73R HX  94
CHUUK AP       MOCLDY    84  82  94 VRB6      29.79R HX 101
POHNPEI AP     NOT AVBL
POHNPEI WSO    NOT AVBL
KOSRAE AP      NOT AVBL

$$

PMZ181-200900-
REPUBLIC OF THE MARSHALL ISLANDS-

CITY           SKY/WX    TMP DP  RH WIND       PRES   REMARKS
KWAJALEIN AP   CLEAR     82  77  83 E14       29.80R HX  91
MAJURO AP      CLOUDY    84  77  79 E10       29.79R HX  94
MAJURO WSO     NOT AVBL

$$





USA.gov is the U.S. government's official web portal to all federal, state and local government web resources and services.